Location: *
(40.9167°N, 9.5000°E)
Time: 07:00:36
(UTC+00:00)

Cosmos 2082 Rocket - Pass Details

Date: 09 April 2020
Orbit: 832 x 855 km, 71.0° (Epoch: 03 June)

Event Time Altitude Azimuth Distance (km) Brightness Sun altitude
Exits shadow 22:15:14 27° 345° (NNW) 1,553 4.0 -38.6°
Drops below altitude 10° 22:18:16 10° 9° (N) 2,467 5.2 -38.8°
Sets 22:20:55 0° 17° (NNE) 3,409 6.0 -39.0°
